This is the latest recevied weather packets stored in our database for station/object KD7AWQ. If no packets are shown the sender has not sent any weather packets the latest 10 day(s).
| Time | Temp. | Humidity | Pressure | Rain* | Wind** | Luminosity | Snow |
|---|---|---|---|---|---|---|---|
| 1787890664 | 30.56° C | 26% | 1188.4 hPa | 0 mm | - | 0 W/m² | - |
| 1787890364 | 30.56° C | 26% | 1188.4 hPa | 0 mm | - | 0 W/m² | - |
| 1787890059 | 30.56° C | 26% | 1188.7 hPa | 0 mm | - | 0 W/m² | - |
| 1787889754 | 30° C | 26% | 1188.3 hPa | 0 mm | - | 0 W/m² | - |
| 1787889449 | 30° C | 27% | 1188.4 hPa | 0 mm | - | 0 W/m² | - |
| 1787889149 | 30° C | 28% | 1188.2 hPa | 0 mm | - | 0 W/m² | - |
| 1787888843 | 29.44° C | 29% | 1188.3 hPa | 0 mm | - | 0 W/m² | - |
| 1787888539 | 29.44° C | 30% | 1188.4 hPa | 0 mm | - | 0 W/m² | - |
| 1787888233 | 30° C | 30% | 1188.1 hPa | 0 mm | - | 0 W/m² | - |
| 1787887929 | 30° C | 28% | 1188.2 hPa | 0 mm | - | 0 W/m² | - |
| 1787887624 | 30° C | 28% | 1188 hPa | 0 mm | - | 0 W/m² | - |
| 1787887320 | 30° C | 29% | 1188.2 hPa | 0 mm | - | 0 W/m² | - |
| 1787887019 | 29.44° C | 30% | 1188.2 hPa | 0 mm | - | 0 W/m² | - |
| 1787886714 | 28.89° C | 34% | 1188.1 hPa | 0 mm | - | 0 W/m² | - |
| 1787886409 | 28.33° C | 36% | 1188.1 hPa | 0 mm | - | 0 W/m² | - |
| 1787886105 | 27.78° C | 38% | 1188.7 hPa | 0 mm | - | 0 W/m² | - |
| 1787885804 | 28.33° C | 39% | 1189 hPa | 3.05 mm | - | 0 W/m² | - |
| 1787885504 | 28.33° C | 38% | 1188.7 hPa | 4.32 mm | - | 0 W/m² | - |
| 1787885196 | 27.78° C | 37% | 1188.8 hPa | 3.05 mm | - | 0 W/m² | - |
| 1787884896 | 26.67° C | 44% | 1188.3 hPa | 3.05 mm | - | 0 W/m² | - |
| 1787884591 | 27.22° C | 42% | 1188.6 hPa | 4.32 mm | - | 0 W/m² | - |
| 1787884287 | 30.56° C | 36% | 1188.3 hPa | 1.27 mm | - | 0 W/m² | - |
| 1787883983 | 32.78° C | 22% | 1188 hPa | 0 mm | - | 0 W/m² | - |
| 1787883682 | 32.78° C | 21% | 1187.4 hPa | 0 mm | - | 0 W/m² | - |
| 1787883378 | 33.33° C | 20% | 1186.7 hPa | 0 mm | - | 0 W/m² | - |
* Rain latest hour (hover to see other rain measurements)
** Current wind speed in m/s (hover to see current wind gust speed)